[[{"header":{"parameterUnit":"m.s-1","parameterCategory":1,"la1":30.2992,"la2":30.254,"lo1":-89.0895,"lo2":-89.0443,"dy":0.0025,"dx":0.0025,"nx":19,"ny":19,"refTime":"2026-05-23T21:00:00:Z","depth":0,"parameterNumber":2,"parameterNumberName":"U-component_of_WINDS"},"data":[0,0,0,-1.5926,-1.5929,-1.6077,-1.6078,-1.6256,-1.6257,0,0,0,0,0,0,0,0,0,0,0,-1.5875,-1.5876,-1.5925,-1.5929,-1.6077,-1.6078,-1.6255,-1.6257,0,0,0,0,0,0,0,0,0,0,0,-1.5874,-1.5875,-1.5877,-1.5929,-1.6077,-1.6078,-1.6255,-1.6147,0,0,0,0,0,0,0,0,0,0,-1.6005,-1.5951,-1.5875,-1.5877,-1.593,-1.6077,-1.6078,-1.6142,-1.6154,-1.6183,0,-1.6208,0,-1.6235,-1.6268,-1.6269,0,0,0,-1.5934,-1.5942,-1.5988,-1.5877,-1.5932,-1.6076,-1.6012,-1.6149,-1.6162,-1.6199,-1.621,-1.6217,-1.6238,-1.6269,-1.627,-1.6422,-1.6422,0,0,-1.5926,-1.5898,-1.5979,-1.5996,-1.5972,-1.6007,-1.6016,-1.6157,-1.6168,-1.6211,-1.6222,-1.6241,-1.627,-1.6272,-1.6421,-1.6422,0,0,0,-1.5899,-1.5892,-1.5935,-1.5988,-1.6016,-1.6011,-1.6022,-1.6162,-1.6178,-1.6224,-1.6243,-1.6271,-1.6273,-1.6421,-1.6421,-1.6416,0,0,0,-1.5894,-1.5876,-1.5931,-1.5915,-1.6013,-1.6091,-1.6023,-1.6168,-1.6185,-1.6242,-1.6271,-1.6275,-1.642,-1.6421,-1.6415,-1.6418,0,0,0,-1.5867,-1.5873,-1.5892,-1.5913,-1.5976,-1.6089,-1.6114,-1.6173,-1.6197,-1.6269,-1.6276,-1.642,-1.6421,-1.6414,-1.6417,-1.6449,0,0,0,-1.5831,-1.5885,-1.5891,-1.596,-1.5974,-1.6085,-1.6113,-1.6197,-1.6258,-1.6272,-1.642,-1.6421,-1.6414,-1.6416,-1.6448,-1.647,-1.6477,0,0,-1.5884,-1.5891,-1.5933,-1.5943,-1.6045,-1.6064,-1.6166,-1.6249,-1.6282,-1.6373,-1.6377,-1.6415,-1.6417,-1.6448,-1.6526,-1.6531,0,0,0,-1.5941,-1.5971,-1.6004,-1.6061,-1.6126,-1.6181,-1.6252,-1.6283,-1.6361,-1.6323,-1.6437,-1.6439,-1.6458,-1.647,-1.6475,-1.6493,-1.6426,-1.6426,-1.6426,-1.5975,-1.6014,-1.6087,-1.6143,-1.6198,-1.627,-1.6318,-1.6372,-1.6396,-1.6422,-1.6449,-1.6492,-1.6505,-1.6508,-1.6527,-1.6465,-1.6465,-1.6465,-1.6465,-1.6056,-1.6104,-1.6134,-1.6215,-1.6256,-1.6325,-1.6397,-1.6411,-1.6481,-1.6475,-1.6494,-1.6483,-1.6513,-1.6531,-1.6465,-1.6465,-1.6465,-1.6465,-1.6465,-1.6082,-1.6112,-1.6148,-1.6234,-1.6296,-1.6352,-1.6417,-1.6452,-1.6486,-1.6505,-1.6537,-1.6537,-1.6541,-1.6518,-1.6518,-1.6518,-1.6518,-1.6519,-1.6519,-1.6094,-1.6136,-1.6186,-1.6259,-1.63,-1.6358,-1.6431,-1.6472,-1.6526,-1.6547,-1.6547,-1.6568,-1.6508,-1.6492,-1.6521,-1.6521,-1.652,-1.652,-1.652,-1.6161,-1.6151,-1.6229,-1.627,-1.6358,-1.6416,-1.6461,-1.6541,-1.658,-1.6611,-1.6628,-1.6579,-1.6588,-1.6585,-1.6572,-1.662,-1.662,-1.662,-1.662,-1.6182,-1.6191,-1.6278,-1.6341,-1.6406,-1.6454,-1.654,-1.6597,-1.6654,-1.6681,-1.6679,-1.6665,-1.666,-1.6673,-1.6668,-1.6656,-1.6724,-1.6724,-1.6724,-1.6225,-1.6241,-1.6308,-1.6364,-1.6435,-1.6495,-1.6577,-1.6648,-1.6711,-1.6729,-1.6702,-1.6698,-1.6675,-1.6666,-1.6683,-1.6674,-1.6653,0,0]},{"header":{"parameterUnit":"m.s-1","parameterCategory":1,"la1":30.2992,"la2":30.254,"lo1":-89.0895,"lo2":-89.0443,"dy":0.0025,"dx":0.0025,"nx":19,"ny":19,"refTime":"2026-05-23T21:00:00:Z","depth":0,"parameterNumber":3,"parameterNumberName":"V-component_of_WINDS"},"data":[0,0,0,2.8597,2.8598,2.8652,2.8652,2.873,2.8731,0,0,0,0,0,0,0,0,0,0,0,2.8589,2.859,2.8597,2.8598,2.8652,2.8652,2.873,2.8731,0,0,0,0,0,0,0,0,0,0,0,2.8589,2.859,2.8591,2.8599,2.8652,2.8652,2.873,2.8686,0,0,0,0,0,0,0,0,0,0,2.8632,2.8633,2.8589,2.8591,2.8599,2.8652,2.8652,2.8683,2.8688,2.8711,0,2.8735,0,2.8734,2.8737,2.8737,0,0,0,2.8592,2.8629,2.8636,2.8591,2.86,2.8651,2.8626,2.8686,2.8692,2.8718,2.8736,2.8738,2.8735,2.8738,2.8738,2.889,2.8891,0,0,2.8589,2.8603,2.8632,2.864,2.8634,2.8624,2.8628,2.8689,2.8709,2.8736,2.874,2.8737,2.8738,2.8739,2.8889,2.8891,0,0,0,2.8585,2.8601,2.8606,2.8637,2.8646,2.8626,2.863,2.8706,2.8707,2.874,2.8738,2.8739,2.874,2.8888,2.889,2.8951,0,0,0,2.8583,2.8598,2.8605,2.8614,2.8645,2.8677,2.8646,2.8703,2.8709,2.8737,2.8739,2.8741,2.8887,2.8889,2.8947,2.8978,0,0,0,2.8583,2.8598,2.8609,2.8615,2.8638,2.8676,2.868,2.8704,2.8708,2.8737,2.8741,2.8886,2.8889,2.8944,2.8972,2.902,0,0,0,2.8586,2.8664,2.861,2.8695,2.8638,2.8714,2.8679,2.8736,2.8768,2.8739,2.8887,2.889,2.8942,2.8968,2.9017,2.9063,2.9084,0,0,2.8691,2.8677,2.8725,2.8679,2.8768,2.8705,2.8803,2.882,2.8811,2.8864,2.8867,2.8949,2.8971,2.9019,2.9199,2.9215,0,0,0,2.8763,2.8798,2.8819,2.8851,2.8866,2.888,2.8881,2.8887,2.8932,2.8841,2.898,2.8993,2.902,2.9042,2.9056,2.9078,2.8901,2.89,2.89,2.893,2.8913,2.8992,2.8981,2.9012,2.9012,2.9035,2.9042,2.9017,2.905,2.9065,2.9176,2.9202,2.9212,2.9235,2.909,2.909,2.909,2.909,2.9081,2.9126,2.909,2.9153,2.9134,2.9186,2.9188,2.9168,2.9212,2.9164,2.9187,2.9134,2.9231,2.925,2.9095,2.9094,2.9093,2.9093,2.9093,2.9187,2.9206,2.9212,2.9254,2.9289,2.9275,2.9319,2.9301,2.9284,2.9307,2.932,2.9319,2.9314,2.9315,2.9315,2.9316,2.9316,2.9316,2.9316,2.9295,2.9299,2.9339,2.936,2.9377,2.9396,2.9395,2.9411,2.9423,2.9406,2.9406,2.9376,2.9245,2.9211,2.9322,2.9321,2.9321,2.932,2.932,2.9451,2.9412,2.9474,2.9491,2.9512,2.9546,2.9522,2.9555,2.9565,2.9587,2.9552,2.9458,2.9442,2.9431,2.9402,2.9557,2.9557,2.9557,2.9557,2.954,2.953,2.9587,2.9614,2.9639,2.9623,2.9691,2.969,2.9683,2.9687,2.9663,2.9624,2.9613,2.9603,2.9588,2.9561,2.9753,2.9753,2.9753,2.9634,2.9625,2.9687,2.9679,2.9694,2.9707,2.977,2.9801,2.9786,2.9761,2.969,2.9682,2.962,2.9601,2.9574,2.955,2.9501,0,0]}]]